Meppe Airport ETWM

Flugplatz Daten

Name: Meppe Airport

Ident: ETWM

Lat: 52,72320175

Long: 7,326330185

Platzhöhe: 0 ft

IataCode:

City:

Metar

2022/08/14 05:20
ETWM 140520Z AUTO VRB02KT //// // ////// 19/14 Q1012 ///

Taf

Gewünschte Webcam nicht vorhanden? Dann fügen Sie eine hinzu. Sie wird dann so schnell wie möglich freigeschaltet
Url: Title: